Location: Kershaw
(34.5481°N, 80.5823°W)
Time: 16:12:58
(UTC+00:00)

Vanguard 1 Rocket - Pass Details

Date: 01 October 2022
Orbit: 650 x 4225 km, 34.3° (Epoch: 08 December)

Event Time Altitude Azimuth Distance (km) Brightness Sun altitude
Rises 22:55:36 0° 218° (SW) 8,456 13.1 1.4°
Reaches altitude 10° 23:02:06 10° 213° (SSW) 7,386 12.6 0.0°
Maximum altitude 23:24:33 46° 150° (SSE) 4,036 10.5 -4.6°
Drops below altitude 10° 23:38:27 10° 83° (E) 4,802 10.4 -7.4°
Enters shadow 23:39:10 - 82° (E) 4,933 10.5 -7.6°
Sets 23:41:34 0° 77° (ENE) 5,416 - -8.1°
